Regional Weather Roundup
Issued by NWS Sioux Falls, SD

Home | Current Version | Previous Version | Graphics & Text | Print | Product List | Glossary Off
Versions: 1 2 3 4 5 6 7 8 9 10 11 12 13 14 15 16 17 18 19 20 21 22 23 24 25 26 27 28 29 30 31 32 33 34 35 36 37 38 39 40 41 42 43 44 45 46 47 48 49 50

000
ASUS43 KFSD 270702
RWRFSD

WEATHER ROUNDUP FOR SE SOUTH DAKOTA/SW MINNESOTA/NW IOWA
NATIONAL WEATHER SERVICE SIOUX FALLS SD
100 AM CST TUE JAN 27 2015

NOTE: "FAIR" INDICATES FEW OR NO CLOUDS BELOW 12,000 FEET WITH NO
SIGNIFICANT WEATHER AND OR OBSTRUCTIONS TO VISIBILITY.


SDZ038>040-050-052>070-270800-
SOUTHEAST SOUTH DAKOTA

CITY           SKY/WX    TMP DP  RH WIND       PRES   REMARKS
CHAMBERLAIN    NOT AVBL
HURON          CLEAR     27  26  96 SE3       30.03F
MADISON        FAIR      32  32 100 W6        30.04R WCI  26
MITCHELL       CLEAR     30  29  96 CALM      30.05F
SIOUX FALLS    CLEAR     30  28  92 W6        30.05R WCI  24
WINNER         FAIR      37  29  72 SE12      30.00F
YANKTON        CLEAR     30  27  86 W3        30.07S
$$

MNZ071-072-080-081-089-090-097-098-270800-
SOUTHWEST MINNESOTA

CITY           SKY/WX    TMP DP  RH WIND       PRES   REMARKS
FAIRMONT       CLEAR     32  27  80 NW7       30.01R WCI  26
JACKSON        PTCLDY    32  30  93 NW9       30.03R WCI  24
LUVERNE        CLEAR     32  30  93 NW6       30.04R WCI  26
MARSHALL       CLEAR     30  28  93 N5        30.05S WCI  25
MONTEVIDEO     CLEAR     28  28 100 NW5       30.05R WCI  23
PIPESTONE      CLEAR     32  30  93 CALM      30.02R
REDWOOD FALLS  CLOUDY    32  29  88 NW3       30.03S
TRACY          PTCLDY    32  31  96 NW3       30.04R
WINDOM         PTCLDY    30  30 100 NW9       30.02S WCI  22
WORTHINGTON    CLEAR     30  28  93 NW6       30.03R WCI  24
$$

IAZ001>003-012>014-020>022-031-032-NEZ013-014-SDZ071-270800-
NORTHWEST IOWA

CITY           SKY/WX    TMP DP  RH WIND       PRES   REMARKS
ESTHERVILLE    CLEAR     32  30  92 NW10      30.02R WCI  24
SIOUX CITY     CLEAR     31  28  89 W6        30.06S WCI  25
SPENCER        CLEAR     30  28  92 NW7       30.04R WCI  23
$$

ABBREVIATIONS USED IN REMARKS
   TC - TEMPERATURE IN CELSIUS
  WCI - WIND CHILL INDEX
   HX - HEAT INDEX
  VSB - VISIBILITY



USA.gov is the U.S. government's official web portal to all federal, state and local government web resources and services.